���t,����,�O�C���x,�����t���O,�O�C���Ύ��x,�����t���O,���ԉ��x,�����t���O,���ԑ��Ύ��x,�����t���O,�g�C������,�����t���O,�L�b�`�����x,�����t���O,��󒲎����x,�����t���O
2005/2/1,0:00,3.7,0,,2,18.5,0,46.1,0,,2,15.1,0,9.6,0
2005/2/1,0:15,3.7,0,,2,18.6,0,46.1,0,,2,15.4,0,9.6,0
2005/2/1,0:30,3.8,0,,2,18.7,0,45.5,0,,2,15.5,0,9.7,0
2005/2/1,0:45,4,0,,2,18.9,0,45.3,0,,2,15.8,0,9.7,0
2005/2/1,1:00,4.2,0,,2,18.9,0,44.6,0,,2,16,0,9.6,0
2005/2/1,1:15,3.8,0,,2,19,0,44.2,0,,2,16.2,0,9.6,0
2005/2/1,1:30,2.2,0,,2,19,0,43.7,0,,2,16.4,0,9.6,0
2005/2/1,1:45,2,0,,2,19.1,0,45,0,,2,16.6,0,9.5,0
2005/2/1,2:00,3.1,0,,2,19.2,0,46,0,,2,17,0,9.5,0
2005/2/1,2:15,3.4,0,,2,19.3,0,46.1,0,,2,17,0,9.5,0
2005/2/1,2:30,3.2,0,,2,19.3,0,45.4,0,,2,17,0,9.4,0
2005/2/1,2:45,3,0,,2,19.5,0,43.1,0,,2,17,0,9.4,0
2005/2/1,3:00,2.9,0,,2,19.2,0,42.1,0,,2,17,0,9.4,0
2005/2/1,3:15,2.6,0,,2,19,0,41.3,0,,2,17,0,9.3,0
2005/2/1,3:30,2.5,0,,2,18.9,0,40.6,0,,2,17,0,9.3,0
2005/2/1,3:45,2.1,0,,2,18.8,0,39.6,0,,2,17,0,9.2,0
2005/2/1,4:00,1.8,0,,2,18.8,0,39.1,0,,2,17,0,9.2,0
2005/2/1,4:15,1.7,0,,2,18.2,0,38,0,,2,16.9,0,9.2,0
2005/2/1,4:30,1.4,0,,2,17.6,0,34.8,0,,2,16.7,0,9.2,0
2005/2/1,4:45,1.2,0,,2,17.3,0,35.7,0,,2,16.5,0,9.1,0
2005/2/1,5:00,0.9,0,,2,17.1,0,35.8,0,,2,16.4,0,9.1,0
2005/2/1,5:15,0.6,0,,2,16.8,0,35.9,0,,2,16.2,0,9,0
2005/2/1,5:30,0.8,0,,2,16.5,0,36.1,0,,2,16,0,9,0
2005/2/1,5:45,1.2,0,,2,16.2,0,35.8,0,,2,15.8,0,8.9,0
2005/2/1,6:00,1.3,0,,2,15.9,0,35.9,0,,2,15.6,0,8.9,0
2005/2/1,6:15,1.4,0,,2,15.7,0,35.8,0,,2,15.5,0,8.8,0
2005/2/1,6:30,1.1,0,,2,15.4,0,36.1,0,,2,15.3,0,8.8,0
2005/2/1,6:45,1,0,,2,15.3,0,35.9,0,,2,15.2,0,8.8,0
2005/2/1,7:00,1.3,0,,2,15.1,0,35.7,0,,2,15,0,8.7,0
2005/2/1,7:15,1.2,0,,2,14.9,0,35.7,0,,2,14.9,0,8.6,0
2005/2/1,7:30,1.3,0,,2,14.7,0,35.5,0,,2,14.7,0,8.6,0
2005/2/1,7:45,1.1,0,,2,14.6,0,35.6,0,,2,14.6,0,8.6,0
2005/2/1,8:00,1.3,0,,2,14.5,0,35.5,0,,2,14.5,0,8.5,0
2005/2/1,8:15,1.2,0,,2,14.5,0,34.7,0,,2,14.4,0,8.5,0
2005/2/1,8:30,1.2,0,,2,14.1,0,33.2,0,,2,14.2,0,8.5,0
2005/2/1,8:45,0.7,0,,2,14,0,34,0,,2,14.1,0,8.5,0
2005/2/1,9:00,0.6,0,,2,14,0,34.7,0,,2,14,0,8.4,0
2005/2/1,9:15,0.5,0,,2,13.9,0,35.1,0,,2,13.9,0,8.3,0
2005/2/1,9:30,0.7,0,,2,13.8,0,35.3,0,,2,13.8,0,8.3,0
2005/2/1,9:45,0,0,,2,13.8,0,35.6,0,,2,13.7,0,8.2,0
2005/2/1,10:00,0,0,,2,13.8,0,35.8,0,,2,13.7,0,8.2,0
2005/2/1,10:15,-0.3,0,,2,13.7,0,36,0,,2,13.6,0,8.2,0
2005/2/1,10:30,0.7,0,,2,13.7,0,35.9,0,,2,13.5,0,8.1,0
2005/2/1,10:45,0.7,0,,2,13.6,0,35.9,0,,2,13.5,0,8.1,0
2005/2/1,11:00,1,0,,2,13.6,0,36.1,0,,2,13.4,0,8.1,0
2005/2/1,11:15,1.4,0,,2,13.7,0,36,0,,2,13.3,0,8,0
2005/2/1,11:30,1.1,0,,2,13.8,0,35.9,0,,2,13.3,0,8,0
2005/2/1,11:45,1.4,0,,2,13.9,0,35.7,0,,2,13.4,0,8,0
2005/2/1,12:00,1,0,,2,14.1,0,35,0,,2,13.4,0,7.9,0
2005/2/1,12:15,1.2,0,,2,14.1,0,34.5,0,,2,13.4,0,7.9,0
2005/2/1,12:30,1.1,0,,2,14.1,0,34.6,0,,2,13.4,0,7.8,0
2005/2/1,12:45,1.1,0,,2,14,0,34.3,0,,2,13.3,0,7.8,0
2005/2/1,13:00,1.6,0,,2,13.9,0,34.5,0,,2,13.3,0,7.8,0
2005/2/1,13:15,1,0,,2,13.9,0,34.3,0,,2,13.2,0,7.8,0
2005/2/1,13:30,0.5,0,,2,13.7,0,33.5,0,,2,13.2,0,7.7,0
2005/2/1,13:45,0,0,,2,13.7,0,33.5,0,,2,13.1,0,7.7,0
2005/2/1,14:00,0.3,0,55,0,13.6,0,33.6,0,,2,13,0,7.7,0
2005/2/1,14:15,0.3,0,56,0,13.5,0,33.4,0,,2,13,0,7.8,0
2005/2/1,14:30,0.5,0,57,0,13.4,0,32.7,0,,2,12.9,0,7.7,0
2005/2/1,14:45,0.8,0,49,0,13.2,0,33.1,0,,2,12.8,0,7.7,0
2005/2/1,15:00,0.3,0,57,0,13.1,0,33.3,0,,2,12.7,0,7.7,0
2005/2/1,15:15,0.5,0,56,0,13,0,33.5,0,,2,12.6,0,7.7,0
2005/2/1,15:30,0.3,0,58,0,13.2,0,32.5,0,,2,12.6,0,7.7,0
2005/2/1,15:45,0.5,0,58,0,13.4,0,34.4,0,,2,12.6,0,7.6,0
2005/2/1,16:00,0.9,0,51,0,14.1,0,35.7,0,,2,13,0,7.6,0
2005/2/1,16:15,0.9,0,47,0,14.7,0,36.9,0,,2,13.3,0,7.6,0
2005/2/1,16:30,0.4,0,56,0,15.3,0,37.5,0,,2,13.6,0,7.6,0
2005/2/1,16:45,0.3,0,62,0,15.8,0,38,0,,2,13.9,0,7.6,0
2005/2/1,17:00,0.3,0,65,0,16.3,0,38.5,0,,2,14.1,0,7.6,0
2005/2/1,17:15,0.4,0,63,0,16.7,0,38.7,0,,2,14.4,0,7.5,0
2005/2/1,17:30,0.7,0,55,0,16.9,0,38.4,0,,2,14.5,0,7.5,0
2005/2/1,17:45,0.5,0,59,0,17,0,37.4,0,,2,14.6,0,7.5,0
2005/2/1,18:00,0.8,0,56,0,16.9,0,36.5,0,,2,14.7,0,7.4,0
2005/2/1,18:15,0.5,0,62,0,16.8,0,35.8,0,,2,14.7,0,7.4,0
2005/2/1,18:30,0.7,0,61,0,17.2,0,35.3,0,,2,14.8,0,7.4,0
2005/2/1,18:45,0.8,0,60,0,17.3,0,34.5,0,,2,14.8,0,7.4,0
2005/2/1,19:00,0.9,0,54,0,17.5,0,33.7,0,,2,14.9,0,7.3,0
2005/2/1,19:15,0.9,0,54,0,17.1,0,33.6,0,,2,14.9,0,7.3,0
2005/2/1,19:30,1,0,55,0,16.9,0,33.2,0,,2,14.9,0,7.3,0
2005/2/1,19:45,0.9,0,53,0,15.8,0,27.8,0,,2,14.6,0,7.8,0
2005/2/1,20:00,1,0,52,0,16.6,0,30.5,0,,2,14.8,0,7.8,0
2005/2/1,20:15,1,0,50,0,17.1,0,31.4,0,,2,15.1,0,7.7,0
2005/2/1,20:30,1,0,52,0,17.5,0,34.1,0,,2,15.3,0,7.6,0
2005/2/1,20:45,1,0,53,0,17.9,0,35.3,0,,2,15.5,0,7.5,0
2005/2/1,21:00,1,0,53,0,18.2,0,35.8,0,,2,15.7,0,7.5,0
2005/2/1,21:15,1,0,50,0,18.6,0,36.7,0,,2,16,0,7.4,0
2005/2/1,21:30,1.1,0,47,0,18.8,0,36.7,0,,2,16.1,0,7.4,0
2005/2/1,21:45,1,0,49,0,19,0,36.7,0,,2,16.3,0,7.4,0
2005/2/1,22:00,1.1,0,48,0,19.2,0,36.5,0,,2,16.4,0,7.4,0
2005/2/1,22:15,1.1,0,49,0,19.3,0,36.1,0,,2,16.6,0,7.4,0
2005/2/1,22:30,1,0,53,0,19.4,0,36,0,,2,16.6,0,7.3,0
2005/2/1,22:45,0.9,0,55,0,19.3,0,36.3,0,,2,16.7,0,7.4,0
2005/2/1,23:00,0.9,0,54,0,19.1,0,36.7,0,,2,16.7,0,7.4,0
2005/2/1,23:15,0.9,0,55,0,19,0,37.1,0,,2,16.8,0,7.4,0
2005/2/1,23:30,0.9,0,56,0,19,0,37.6,0,,2,16.8,0,7.4,0
2005/2/1,23:45,1,0,52,0,19,0,38,0,,2,16.8,0,7.3,0
2005/2/2,0:00,0.9,0,53,0,18.8,0,37.7,0,,2,16.8,0,7.4,0
2005/2/2,0:15,0.8,0,54,0,18.3,0,32.4,0,,2,16.8,0,7.6,0
2005/2/2,0:30,0.9,0,54,0,18.3,0,33.1,0,,2,16.7,0,7.7,0
2005/2/2,0:45,1,0,56,0,18.4,0,35,0,,2,16.7,0,7.6,0
2005/2/2,1:00,1,0,55,0,18.4,0,36.3,0,,2,16.7,0,7.6,0
2005/2/2,1:15,1.1,0,52,0,18.4,0,37.1,0,,2,16.7,0,7.6,0
2005/2/2,1:30,1,0,52,0,18.4,0,37.8,0,,2,16.7,0,7.5,0
2005/2/2,1:45,1.1,0,52,0,18.5,0,38.3,0,,2,16.7,0,7.5,0
2005/2/2,2:00,1.1,0,52,0,18.5,0,38.7,0,,2,16.7,0,7.5,0
2005/2/2,2:15,1,0,53,0,18.6,0,39.1,0,,2,16.8,0,7.5,0
2005/2/2,2:30,1.2,0,54,0,18.6,0,39.4,0,,2,16.8,0,7.5,0
2005/2/2,2:45,1.1,0,57,0,18.6,0,39.6,0,,2,16.8,0,7.6,0
2005/2/2,3:00,1.1,0,57,0,18.5,0,39.4,0,,2,16.8,0,7.6,0
2005/2/2,3:15,1.3,0,58,0,18,0,38,0,,2,16.6,0,7.6,0
2005/2/2,3:30,1.3,0,56,0,17.6,0,37.3,0,,2,16.4,0,7.6,0
2005/2/2,3:45,1.3,0,57,0,17.3,0,36.8,0,,2,16.3,0,7.6,0
2005/2/2,4:00,1.3,0,57,0,16.9,0,36,0,,2,16.1,0,7.6,0
2005/2/2,4:15,1.4,0,58,0,16.6,0,35.8,0,,2,15.9,0,7.6,0
2005/2/2,4:30,1.4,0,58,0,16.4,0,35.8,0,,2,15.7,0,7.6,0
2005/2/2,4:45,1.3,0,57,0,16.1,0,35.2,0,,2,15.6,0,7.5,0
2005/2/2,5:00,1.4,0,58,0,15.9,0,34.6,0,,2,15.4,0,7.5,0
2005/2/2,5:15,1.4,0,61,0,15.7,0,34.8,0,,2,15.3,0,7.5,0
2005/2/2,5:30,1.4,0,64,0,15.5,0,34.4,0,,2,15.1,0,7.5,0
2005/2/2,5:45,1.3,0,66,0,15.3,0,34.6,0,,2,14.9,0,7.5,0
2005/2/2,6:00,1.5,0,66,0,15.1,0,34.3,0,,2,14.8,0,7.5,0
2005/2/2,6:15,1.6,0,64,0,14.9,0,34.4,0,,2,14.7,0,7.4,0
2005/2/2,6:30,1.5,0,65,0,14.7,0,34.3,0,,2,14.6,0,7.4,0
2005/2/2,6:45,1.3,0,72,0,14.6,0,34.4,0,,2,14.5,0,7.4,0
2005/2/2,7:00,1.3,0,71,0,14.4,0,34.3,0,,2,14.3,0,7.4,0
2005/2/2,7:15,1.8,0,63,0,14.3,0,34.3,0,,2,14.2,0,7.4,0
2005/2/2,7:30,2.2,0,59,0,14.2,0,34.4,0,,2,14.1,0,7.4,0
2005/2/2,7:45,2.2,0,58,0,14.1,0,34.5,0,,2,14,0,7.4,0
2005/2/2,8:00,2.1,0,61,0,13.9,0,34.4,0,,2,13.9,0,7.4,0
2005/2/2,8:15,1.8,0,68,0,13.8,0,34.5,0,,2,13.8,0,7.4,0
2005/2/2,8:30,1.7,0,77,0,13.8,0,34.6,0,,2,13.7,0,7.4,0
2005/2/2,8:45,1.9,0,78,0,13.6,0,34.6,0,,2,13.6,0,7.4,0
2005/2/2,9:00,2.1,0,75,0,13.5,0,34.6,0,,2,13.5,0,7.4,0
2005/2/2,9:15,2.4,0,72,0,13.7,0,35.4,0,,2,13.5,0,7.4,0
2005/2/2,9:30,2.5,0,71,0,14.1,0,39.9,0,,2,13.6,0,7.5,0
2005/2/2,9:45,3.1,0,69,0,14.3,0,34.3,0,,2,13.7,0,7.5,0
2005/2/2,10:00,2.8,0,69,0,14.2,0,34.4,0,,2,13.7,0,7.8,0
2005/2/2,10:15,3.2,0,72,0,14.6,0,38.5,0,,2,13.8,0,7.8,0
2005/2/2,10:30,2.6,0,80,0,14.8,0,40.1,0,,2,13.9,0,7.8,0
2005/2/2,10:45,2.9,0,81,0,15,0,40.6,0,,2,13.9,0,7.8,0
2005/2/2,11:00,2.8,0,84,0,15.4,0,40.6,0,,2,14,0,7.8,0
2005/2/2,11:15,3,0,84,0,15.5,0,40.9,0,,2,14.1,0,7.8,0
2005/2/2,11:30,3.3,0,81,0,15.7,0,41.3,0,,2,14.1,0,7.8,0
2005/2/2,11:45,3.3,0,81,0,15.8,0,41.5,0,,2,14.2,0,7.9,0
2005/2/2,12:00,4,0,77,0,15.9,0,41.9,0,,2,14.2,0,7.9,0
2005/2/2,12:15,4.1,0,75,0,16.1,0,42.1,0,,2,14.3,0,7.9,0
2005/2/2,12:30,4.3,0,73,0,16.2,0,42.3,0,,2,14.4,0,7.9,0
2005/2/2,12:45,4,0,75,0,16.4,0,42.6,0,,2,14.4,0,7.9,0
2005/2/2,13:00,4.1,0,80,0,16.4,0,42.8,0,,2,14.5,0,7.9,0
2005/2/2,13:15,4.2,0,78,0,16.5,0,42.8,0,,2,14.6,0,7.9,0
2005/2/2,13:30,3.3,0,84,0,16.8,0,42.9,0,,2,14.6,0,8,0
2005/2/2,13:45,3.1,0,89,0,17,0,42.8,0,,2,14.7,0,8.1,0
2005/2/2,14:00,3.1,0,92,0,17.2,0,42.6,0,,2,14.8,0,8.1,0
2005/2/2,14:15,3.3,0,93,0,17.2,0,42.3,0,,2,14.9,0,8.2,0
2005/2/2,14:30,3.9,0,90,0,17.4,0,42.4,0,,2,15,0,8.2,0
2005/2/2,14:45,4.4,0,87,0,17.3,0,41.5,0,,2,15,0,8.3,0
2005/2/2,15:00,4,0,79,0,16.9,0,40.7,0,,2,15,0,8.3,0
2005/2/2,15:15,3.3,0,78,0,16.6,0,40.1,0,,2,14.9,0,8.3,0
2005/2/2,15:30,3.1,0,84,0,16.3,0,39.7,0,,2,14.8,0,8.4,0
2005/2/2,15:45,2.8,0,87,0,16.1,0,39.3,0,,2,14.7,0,8.4,0
2005/2/2,16:00,2.9,0,86,0,16.8,0,40.2,0,,2,14.9,0,8.5,0
2005/2/2,16:15,3.1,0,80,0,17.4,0,40.9,0,,2,15.2,0,8.5,0
2005/2/2,16:30,2.5,0,84,0,17.9,0,41.2,0,,2,15.6,0,8.6,0
2005/2/2,16:45,2.4,0,90,0,18.1,0,41.7,0,,2,15.9,0,8.6,0
2005/2/2,17:00,2.4,0,92,0,18.1,0,42.3,0,,2,15.9,0,8.6,0
2005/2/2,17:15,2.4,0,95,0,18.1,0,42.9,0,,2,16,0,8.6,0
2005/2/2,17:30,2,0,96,0,18.2,0,43.5,0,,2,16,0,8.6,0
2005/2/2,17:45,1.9,0,98,0,17.9,0,43.1,0,,2,16,0,8.6,0
2005/2/2,18:00,2,0,99,0,17.5,0,42.5,0,,2,15.9,0,8.6,0
2005/2/2,18:15,2.1,0,99,0,17.2,0,41.8,0,,2,15.7,0,8.6,0
2005/2/2,18:30,1.8,0,99,0,16.9,0,41.3,0,,2,15.6,0,8.6,0
2005/2/2,18:45,1.9,0,99,0,16.6,0,41,0,,2,15.4,0,8.7,0
2005/2/2,19:00,2.3,0,99,0,16.3,0,40.7,0,,2,15.3,0,8.7,0
2005/2/2,19:15,2.6,0,97,0,16.1,0,40.6,0,,2,15.2,0,8.7,0
2005/2/2,19:30,2.6,0,95,0,15.9,0,40.3,0,,2,15.1,0,8.7,0
2005/2/2,19:45,2.6,0,93,0,15.7,0,40.2,0,,2,14.9,0,8.7,0
2005/2/2,20:00,2.9,0,86,0,15.5,0,40.2,0,,2,14.8,0,8.7,0
2005/2/2,20:15,3.2,0,78,0,15.3,0,40.1,0,,2,14.8,0,8.8,0
2005/2/2,20:30,3.2,0,74,0,15.3,0,40.3,0,,2,14.7,0,8.8,0
2005/2/2,20:45,3.3,0,69,0,15.8,0,42.4,0,,2,14.8,0,8.8,0
2005/2/2,21:00,3.3,0,67,0,16,0,42.6,0,,2,14.9,0,8.8,0
2005/2/2,21:15,3.5,0,64,0,16.2,0,41.8,0,,2,14.9,0,8.8,0
2005/2/2,21:30,3.5,0,63,0,17.2,0,42.8,0,,2,15.3,0,8.8,0
2005/2/2,21:45,3.5,0,62,0,17.8,0,43.2,0,,2,15.6,0,8.7,0
2005/2/2,22:00,3.7,0,59,0,18.1,0,43.1,0,,2,15.9,0,8.7,0
2005/2/2,22:15,3.6,0,60,0,18.2,0,42.6,0,,2,15.9,0,8.7,0
2005/2/2,22:30,3.5,0,61,0,18.6,0,46.5,0,,2,16.1,0,8.7,0
2005/2/2,22:45,3.6,0,59,0,18.8,0,45.9,0,,2,16.3,0,8.7,0
2005/2/2,23:00,3.4,0,62,0,18.9,0,46.4,0,,2,16.5,0,8.7,0
2005/2/2,23:15,3.3,0,61,0,19,0,45.9,0,,2,16.7,0,8.7,0
2005/2/2,23:30,3.2,0,63,0,19.1,0,45.4,0,,2,16.9,0,8.8,0
2005/2/2,23:45,3,0,66,0,19.1,0,45.5,0,,2,17,0,8.8,0
2005/2/3,0:00,2.6,0,73,0,19,0,46.1,0,,2,17.1,0,8.8,0
2005/2/3,0:15,2.4,0,79,0,19.1,0,46.5,0,,2,17.1,0,8.8,0
2005/2/3,0:30,2.5,0,74,0,19.1,0,47.4,0,,2,17.2,0,8.8,0
2005/2/3,0:45,2.8,0,68,0,19.1,0,46.9,0,,2,17.3,0,8.8,0
2005/2/3,1:00,2.8,0,69,0,19.1,0,47.2,0,,2,17.4,0,8.8,0
2005/2/3,1:15,2.8,0,69,0,19,0,46.9,0,,2,17.3,0,8.8,0
2005/2/3,1:30,2.7,0,72,0,18.9,0,44.5,0,,2,17.2,0,8.7,0
2005/2/3,1:45,2.5,0,75,0,18.7,0,44,0,,2,17.1,0,8.7,0
2005/2/3,2:00,2.5,0,72,0,18.6,0,43.3,0,,2,16.9,0,8.7,0
2005/2/3,2:15,2.4,0,74,0,18.2,0,34.6,0,,2,16.8,0,8.7,0
2005/2/3,2:30,2.4,0,76,0,17.4,0,32.7,0,,2,16.6,0,9,0
2005/2/3,2:45,2.5,0,74,0,17.4,0,35.5,0,,2,16.4,0,9,0
2005/2/3,3:00,2.6,0,70,0,16.9,0,36.6,0,,2,16.2,0,9,0
2005/2/3,3:15,2.7,0,64,0,16.7,0,37.4,0,,2,16.1,0,8.9,0
2005/2/3,3:30,2.7,0,61,0,16.4,0,35.9,0,,2,16,0,8.9,0
2005/2/3,3:45,2.8,0,61,0,16.2,0,37.5,0,,2,15.8,0,8.9,0
2005/2/3,4:00,2.8,0,65,0,16,0,37.7,0,,2,15.7,0,8.9,0
2005/2/3,4:15,2.8,0,65,0,15.8,0,38,0,,2,15.5,0,8.8,0
2005/2/3,4:30,3,0,61,0,15.6,0,38.2,0,,2,15.4,0,8.8,0
2005/2/3,4:45,3.1,0,61,0,15.5,0,38.3,0,,2,15.2,0,8.8,0
2005/2/3,5:00,3.1,0,62,0,15.3,0,38.4,0,,2,15.1,0,8.7,0
2005/2/3,5:15,3.1,0,64,0,15.1,0,38.5,0,,2,15,0,8.7,0
2005/2/3,5:30,2.5,0,73,0,15,0,38.6,0,,2,14.9,0,8.7,0
2005/2/3,5:45,2.8,0,68,0,14.9,0,38.7,0,,2,14.7,0,8.7,0
2005/2/3,6:00,3.1,0,67,0,14.8,0,38.6,0,,2,14.6,0,8.6,0
2005/2/3,6:15,3.2,0,67,0,14.7,0,38.8,0,,2,14.5,0,8.6,0
2005/2/3,6:30,3.1,0,70,0,14.6,0,38.9,0,,2,14.4,0,8.6,0
2005/2/3,6:45,2.8,0,75,0,14.4,0,39.1,0,,2,14.3,0,8.6,0
2005/2/3,7:00,2.7,0,77,0,14.3,0,39.1,0,,2,14.2,0,8.6,0
2005/2/3,7:15,2.8,0,75,0,14.3,0,39,0,,2,14.1,0,8.6,0
2005/2/3,7:30,3,0,75,0,14.1,0,39.2,0,,2,14.1,0,8.5,0
2005/2/3,7:45,3.1,0,75,0,14.1,0,39.1,0,,2,14,0,8.5,0
2005/2/3,8:00,2.9,0,79,0,14,0,39.3,0,,2,13.9,0,8.5,0
2005/2/3,8:15,2.9,0,81,0,13.8,0,36.4,0,,2,13.8,0,8.5,0
2005/2/3,8:30,3.5,0,78,0,13.3,0,36.3,0,,2,13.6,0,8.7,0
2005/2/3,8:45,4.2,0,65,0,13,0,36.7,0,,2,13.4,0,8.8,0
2005/2/3,9:00,4.8,0,57,0,12.8,0,37.1,0,,2,13.2,0,8.9,0
2005/2/3,9:15,4.8,0,54,0,12.7,0,37.4,0,,2,13.1,0,8.9,0
2005/2/3,9:30,5.2,0,52,0,12.5,0,37.7,0,,2,12.9,0,9,0
2005/2/3,9:45,5.6,0,48,0,12.4,0,37.8,0,,2,12.8,0,9,0
2005/2/3,10:00,5.9,0,47,0,12.4,0,37.9,0,,2,12.8,0,9.1,0
2005/2/3,10:15,6.4,0,46,0,12.4,0,38,0,,2,12.7,0,9.1,0
2005/2/3,10:30,6.7,0,47,0,12.4,0,38.1,0,,2,12.7,0,9.2,0
2005/2/3,10:45,6.8,0,46,0,12.3,0,38.3,0,,2,12.6,0,9.2,0
2005/2/3,11:00,6.9,0,47,0,12.4,0,38.1,0,,2,12.6,0,9.3,0
2005/2/3,11:15,6.7,0,49,0,12.4,0,38.1,0,,2,12.6,0,9.3,0
2005/2/3,11:30,6.7,0,49,0,12.4,0,38.1,0,,2,12.6,0,9.4,0
2005/2/3,11:45,7.3,0,49,0,12.5,0,38.1,0,,2,12.6,0,9.5,0
2005/2/3,12:00,7.1,0,49,0,12.5,0,38.1,0,,2,12.6,0,9.6,0
2005/2/3,12:15,7.5,0,49,0,12.6,0,38.1,0,,2,12.6,0,9.6,0
2005/2/3,12:30,7.1,0,51,0,12.6,0,38.1,0,,2,12.5,0,9.7,0
2005/2/3,12:45,7.3,0,52,0,12.6,0,38.1,0,,2,12.5,0,9.8,0
2005/2/3,13:00,8,0,48,0,12.7,0,38.1,0,,2,12.5,0,9.9,0
2005/2/3,13:15,7.8,0,49,0,12.8,0,38.1,0,,2,12.5,0,10,0
2005/2/3,13:30,7.3,0,52,0,12.7,0,38.2,0,,2,12.5,0,10.1,0
2005/2/3,13:45,7.7,0,50,0,12.8,0,38.3,0,,2,12.5,0,10.2,0
2005/2/3,14:00,7.6,0,50,0,12.7,0,38.5,0,,2,12.5,0,10.3,0
2005/2/3,14:15,7.8,0,50,0,12.7,0,38.6,0,,2,12.5,0,10.4,0
2005/2/3,14:30,7.6,0,50,0,12.8,0,38.5,0,,2,12.5,0,10.6,0
2005/2/3,14:45,7.2,0,52,0,12.8,0,38.7,0,,2,12.5,0,10.7,0
2005/2/3,15:00,7,0,54,0,12.8,0,38.7,0,,2,12.4,0,10.8,0
2005/2/3,15:15,7,0,54,0,12.9,0,38.7,0,,2,12.4,0,10.9,0
2005/2/3,15:30,7,0,54,0,12.9,0,38.8,0,,2,12.4,0,11,0
2005/2/3,15:45,6.4,0,57,0,13,0,38.8,0,,2,12.4,0,11.1,0
2005/2/3,16:00,6.4,0,57,0,12.9,0,38.9,0,,2,12.4,0,11.2,0
2005/2/3,16:15,8,0,54,0,12.9,0,38.9,0,,2,12.4,0,11.3,0
2005/2/3,16:30,6.7,0,56,0,12.9,0,39,0,,2,12.4,0,11.3,0
2005/2/3,16:45,6.4,0,58,0,12.8,0,38.9,0,,2,12.4,0,11.3,0
2005/2/3,17:00,6.4,0,59,0,12.8,0,39.3,0,,2,12.3,0,11.3,0
2005/2/3,17:15,6,0,61,0,12.7,0,39.2,0,,2,12.3,0,11.3,0
2005/2/3,17:30,5.8,0,63,0,12.7,0,39.3,0,,2,12.3,0,11.3,0
2005/2/3,17:45,5.7,0,63,0,12.6,0,39.4,0,,2,12.3,0,11.3,0
2005/2/3,18:00,5.4,0,67,0,12.6,0,39.6,0,,2,12.2,0,11.3,0
2005/2/3,18:15,4.9,0,70,0,12.5,0,39.6,0,,2,12.2,0,11.3,0
2005/2/3,18:30,4.8,0,73,0,12.5,0,39.8,0,,2,12.2,0,11.3,0
2005/2/3,18:45,5,0,70,0,12.5,0,39.8,0,,2,12.2,0,11.2,0
2005/2/3,19:00,4.7,0,70,0,12.4,0,40,0,,2,12.1,0,11.2,0
2005/2/3,19:15,4.4,0,72,0,12.4,0,40,0,,2,12.1,0,11.2,0
2005/2/3,19:30,4,0,74,0,12.3,0,40.1,0,,2,12.1,0,11.2,0
2005/2/3,19:45,3.6,0,74,0,12.4,0,40.1,0,,2,12.1,0,11.2,0
2005/2/3,20:00,3.4,0,75,0,12.6,0,40.3,0,,2,12.2,0,11.3,0
2005/2/3,20:15,3.3,0,76,0,13.2,0,43.1,0,,2,12.4,0,11.3,0
2005/2/3,20:30,3.1,0,77,0,14.4,0,45.9,0,,2,13,0,11.2,0
2005/2/3,20:45,2.8,0,79,0,15.3,0,47.1,0,,2,13.4,0,11.2,0
2005/2/3,21:00,2.6,0,79,0,15.8,0,47.4,0,,2,13.7,0,11.2,0
2005/2/3,21:15,2.5,0,80,0,16.4,0,47.5,0,,2,14,0,11.2,0
2005/2/3,21:30,2.3,0,81,0,16.9,0,47.5,0,,2,14.3,0,11.1,0
2005/2/3,21:45,2.3,0,81,0,17.3,0,46.7,0,,2,14.5,0,11.1,0
2005/2/3,22:00,2.5,0,81,0,17.6,0,45.9,0,,2,14.7,0,11.1,0
2005/2/3,22:15,2.5,0,80,0,17.7,0,44.4,0,,2,14.8,0,11.1,0
2005/2/3,22:30,2.5,0,80,0,17.6,0,43.6,0,,2,14.9,0,11,0
2005/2/3,22:45,2.4,0,81,0,17.6,0,42.9,0,,2,14.9,0,11,0
2005/2/3,23:00,2.1,0,82,0,17.5,0,42.1,0,,2,15,0,11,0
2005/2/3,23:15,1.9,0,82,0,17.5,0,41.6,0,,2,15.1,0,10.9,0
2005/2/3,23:30,1.8,0,83,0,17.5,0,41.5,0,,2,15.2,0,10.9,0
2005/2/3,23:45,1.8,0,83,0,17.5,0,40.9,0,,2,15.3,0,10.8,0
2005/2/4,0:00,1.7,0,84,0,17.5,0,40.3,0,,2,15.3,0,10.8,0
2005/2/4,0:15,1.7,0,85,0,17.6,0,40.3,0,,2,15.4,0,10.8,0
2005/2/4,0:30,1.6,0,85,0,17.5,0,40.3,0,,2,15.5,0,10.7,0
2005/2/4,0:45,1.2,0,85,0,17.6,0,40.1,0,,2,15.5,0,10.7,0
2005/2/4,1:00,1.3,0,86,0,17.5,0,40,0,,2,15.5,0,10.6,0
2005/2/4,1:15,1.5,0,86,0,17.5,0,39.4,0,,2,15.6,0,10.6,0
2005/2/4,1:30,1.6,0,86,0,17.6,0,38.9,0,,2,15.6,0,10.6,0
2005/2/4,1:45,1.3,0,86,0,17.6,0,38.8,0,,2,15.7,0,10.5,0
2005/2/4,2:00,1.3,0,87,0,17.6,0,39.1,0,,2,15.8,0,10.5,0
2005/2/4,2:15,1.5,0,87,0,17.5,0,40.1,0,,2,15.8,0,10.4,0
2005/2/4,2:30,1.4,0,87,0,17.6,0,41.7,0,,2,15.9,0,10.4,0
2005/2/4,2:45,1.5,0,87,0,17.7,0,44.1,0,,2,16,0,10.3,0
2005/2/4,3:00,1.5,0,87,0,17.8,0,44.9,0,,2,16.1,0,10.3,0
2005/2/4,3:15,1.5,0,88,0,17.8,0,44.3,0,,2,16.1,0,10.3,0
2005/2/4,3:30,1.6,0,88,0,17.7,0,43.5,0,,2,16.1,0,10.2,0
2005/2/4,3:45,1.7,0,88,0,17.3,0,42.9,0,,2,16,0,10.2,0
2005/2/4,4:00,1.8,0,88,0,17,0,42.9,0,,2,15.8,0,10.2,0
2005/2/4,4:15,1.9,0,87,0,16.7,0,42.6,0,,2,15.6,0,10.1,0
2005/2/4,4:30,2.1,0,86,0,16.4,0,42.2,0,,2,15.4,0,10.1,0
2005/2/4,4:45,1.9,0,86,0,16.2,0,42.1,0,,2,15.3,0,10.1,0
2005/2/4,5:00,1.8,0,86,0,15.9,0,42,0,,2,15.1,0,10.1,0
2005/2/4,5:15,1.8,0,86,0,15.7,0,39.4,0,,2,14.9,0,10,0
2005/2/4,5:30,1.8,0,86,0,15.1,0,36.6,0,,2,14.8,0,10.2,0
2005/2/4,5:45,1.9,0,86,0,14.7,0,36.2,0,,2,14.6,0,10.3,0
2005/2/4,6:00,1.9,0,86,0,14.5,0,36.2,0,,2,14.4,0,10.3,0
2005/2/4,6:15,2,0,86,0,14.3,0,36.2,0,,2,14.2,0,10.3,0
2005/2/4,6:30,2.2,0,86,0,14.1,0,36.4,0,,2,14,0,10.3,0
2005/2/4,6:45,2.4,0,85,0,13.9,0,36.6,0,,2,13.8,0,10.3,0
2005/2/4,7:00,2.4,0,86,0,13.7,0,36.7,0,,2,13.7,0,10.3,0
2005/2/4,7:15,2.5,0,87,0,13.6,0,36.9,0,,2,13.5,0,10.3,0
2005/2/4,7:30,2.6,0,88,0,13.5,0,37.1,0,,2,13.4,0,10.2,0
2005/2/4,7:45,2.8,0,89,0,13.3,0,37.2,0,,2,13.3,0,10.2,0
2005/2/4,8:00,2.8,0,89,0,13.2,0,37.3,0,,2,13.1,0,10.2,0
2005/2/4,8:15,3,0,90,0,13.1,0,37.5,0,,2,13,0,10.1,0
2005/2/4,8:30,3.3,0,89,0,13,0,37.5,0,,2,12.9,0,10.1,0
2005/2/4,8:45,3.4,0,88,0,12.9,0,37.7,0,,2,12.8,0,10.1,0
2005/2/4,9:00,3.7,0,88,0,13.3,0,38,0,,2,12.9,0,10.1,0
2005/2/4,9:15,3.9,0,87,0,14.3,0,39,0,,2,13.5,0,10,0
2005/2/4,9:30,4,0,86,0,15.5,0,38.4,0,,2,13.9,0,10,0
2005/2/4,9:45,4,0,85,0,15.5,0,38.2,0,,2,14,0,9.9,0
2005/2/4,10:00,4.1,0,85,0,16.1,0,38.2,0,,2,14.4,0,9.9,0
2005/2/4,10:15,4.2,0,85,0,16.7,0,37.8,0,,2,14.8,0,9.9,0
2005/2/4,10:30,4.1,0,85,0,16.9,0,37.2,0,,2,15.1,0,9.9,0
2005/2/4,10:45,4.2,0,86,0,16.4,0,37.8,0,,2,14.8,0,9.9,0
2005/2/4,11:00,4.2,0,86,0,15.9,0,37.5,0,,2,14.5,0,9.9,0
2005/2/4,11:15,4.3,0,86,0,15.5,0,37.5,0,,2,14.3,0,9.9,0
2005/2/4,11:30,4.4,0,86,0,15.2,0,37.5,0,,2,14.2,0,9.9,0
2005/2/4,11:45,5.1,0,85,0,14.9,0,37.4,0,,2,14.1,0,9.8,0
2005/2/4,12:00,5.5,0,83,0,14.8,0,37.6,0,,2,13.9,0,9.8,0
2005/2/4,12:15,6,0,81,0,14.5,0,37.7,0,,2,13.8,0,9.8,0
2005/2/4,12:30,6.6,0,79,0,14.4,0,37.8,0,,2,13.7,0,9.8,0
2005/2/4,12:45,6.6,0,78,0,14.2,0,38,0,,2,13.6,0,9.8,0
2005/2/4,13:00,6.7,0,78,0,14.4,0,38.3,0,,2,13.7,0,9.8,0
2005/2/4,13:15,6.7,0,78,0,14.8,0,39.7,0,,2,14,0,9.8,0
2005/2/4,13:30,6.9,0,77,0,15.2,0,39.5,0,,2,14.2,0,9.8,0
2005/2/4,13:45,7.2,0,76,0,15.5,0,39.1,0,,2,14.3,0,9.8,0
2005/2/4,14:00,7.8,0,75,0,15.8,0,38.7,0,,2,14.5,0,9.9,0
2005/2/4,14:15,7.9,0,73,0,16,0,38.1,0,,2,14.6,0,9.9,0
2005/2/4,14:30,8.4,0,72,0,15.9,0,37.6,0,,2,14.6,0,9.9,0
2005/2/4,14:45,8.8,0,71,0,15.7,0,37.6,0,,2,14.5,0,9.9,0
2005/2/4,15:00,8.6,0,71,0,15.5,0,37.8,0,,2,14.4,0,9.9,0
2005/2/4,15:15,8.3,0,72,0,15.4,0,37.8,0,,2,14.3,0,10,0
2005/2/4,15:30,8.1,0,74,0,15.3,0,37.8,0,,2,14.2,0,10,0
2005/2/4,15:45,8.1,0,75,0,15.2,0,37.8,0,,2,14.2,0,10.1,0
2005/2/4,16:00,7.9,0,76,0,15.2,0,37.8,0,,2,14.1,0,10.2,0
2005/2/4,16:15,7.6,0,77,0,15.1,0,37.7,0,,2,14.1,0,10.3,0
2005/2/4,16:30,7.4,0,78,0,15,0,37.9,0,,2,14,0,10.4,0
2005/2/4,16:45,7.2,0,80,0,14.9,0,38,0,,2,14,0,10.4,0
2005/2/4,17:00,7,0,81,0,14.8,0,38.2,0,,2,13.9,0,10.4,0
2005/2/4,17:15,6.7,0,83,0,14.7,0,38.3,0,,2,13.9,0,10.4,0
2005/2/4,17:30,6.5,0,84,0,14.6,0,38.3,0,,2,13.8,0,10.4,0
2005/2/4,17:45,6.3,0,85,0,14.5,0,38.5,0,,2,13.8,0,10.4,0
2005/2/4,18:00,6.1,0,86,0,14.4,0,38.5,0,,2,13.7,0,10.4,0
2005/2/4,18:15,5.8,0,88,0,14.3,0,38.6,0,,2,13.7,0,10.4,0
2005/2/4,18:30,5.6,0,88,0,14.3,0,38.5,0,,2,13.7,0,10.5,0
2005/2/4,18:45,5.2,0,89,0,15.1,0,38.4,0,,2,14.1,0,10.6,0
2005/2/4,19:00,4.9,0,90,0,15.8,0,37.8,0,,2,14.4,0,10.6,0
2005/2/4,19:15,4.6,0,90,0,15.9,0,37.8,0,,2,14.6,0,10.6,0
2005/2/4,19:30,4.5,0,91,0,16.1,0,37.8,0,,2,14.6,0,10.7,0
2005/2/4,19:45,4.4,0,91,0,16.2,0,37.5,0,,2,14.7,0,10.7,0
2005/2/4,20:00,4.1,0,91,0,16.4,0,37.5,0,,2,14.7,0,10.7,0
2005/2/4,20:15,4.1,0,92,0,16.6,0,38.1,0,,2,14.9,0,10.7,0
2005/2/4,20:30,4,0,92,0,16.9,0,39.3,0,,2,15,0,10.6,0
2005/2/4,20:45,3.8,0,92,0,17.1,0,39.6,0,,2,15.1,0,10.6,0
2005/2/4,21:00,3.6,0,92,0,17.2,0,38.2,0,,2,15.3,0,10.5,0
2005/2/4,21:15,3.6,0,93,0,17.3,0,37.3,0,,2,15.4,0,10.5,0
2005/2/4,21:30,3.5,0,93,0,17.2,0,35,0,,2,15.6,0,10.5,0
2005/2/4,21:45,3.4,0,93,0,17.3,0,35.9,0,,2,15.6,0,10.6,0
2005/2/4,22:00,3.4,0,95,0,17.8,0,36.7,0,,2,15.8,0,10.5,0
2005/2/4,22:15,3.3,0,95,0,18.2,0,37.9,0,,2,16,0,10.4,0
2005/2/4,22:30,3.1,0,95,0,18.5,0,37.2,0,,2,16.2,0,10.4,0
2005/2/4,22:45,2.9,0,96,0,18.8,0,36.3,0,,2,16.4,0,10.3,0
2005/2/4,23:00,2.8,0,95,0,18.9,0,36,0,,2,16.5,0,10.3,0
2005/2/4,23:15,2.7,0,95,0,19.2,0,37.7,0,,2,16.8,0,10.3,0
2005/2/4,23:30,2.6,0,95,0,19.4,0,39.5,0,,2,17,0,10.3,0
2005/2/4,23:45,2.6,0,94,0,19.6,0,40.8,0,,2,17.2,0,10.2,0
2005/2/5,0:00,2.6,0,94,0,19.8,0,41.8,0,,2,17.4,0,10.2,0
2005/2/5,0:15,2.5,0,94,0,20,0,43.4,0,,2,17.5,0,10.2,0
2005/2/5,0:30,2.5,0,95,0,20.1,0,44.6,0,,2,17.7,0,10.2,0
2005/2/5,0:45,2.5,0,95,0,20.2,0,43.5,0,,2,17.9,0,10.3,0
2005/2/5,1:00,2.4,0,95,0,20.1,0,43.9,0,,2,17.8,0,10.2,0
2005/2/5,1:15,2.2,0,95,0,20,0,44.2,0,,2,17.8,0,10.2,0
2005/2/5,1:30,2.3,0,95,0,19.9,0,45.5,0,,2,17.7,0,10.2,0
2005/2/5,1:45,2.2,0,96,0,19.9,0,47,0,,2,17.7,0,10.2,0
2005/2/5,2:00,2.1,0,97,0,19.8,0,47,0,,2,17.7,0,10.2,0
2005/2/5,2:15,2,0,98,0,19.7,0,47.8,0,,2,17.8,0,10.1,0
2005/2/5,2:30,2.2,0,98,0,19.7,0,48.4,0,,2,17.8,0,10.1,0
2005/2/5,2:45,2.3,0,99,0,19.3,0,48.8,0,,2,17.7,0,10.1,0
2005/2/5,3:00,2,0,98,0,19,0,47.8,0,,2,17.6,0,10.1,0
2005/2/5,3:15,1.9,0,96,0,18.6,0,47.2,0,,2,17.4,0,10.1,0
2005/2/5,3:30,1.7,0,96,0,18.3,0,46.6,0,,2,17.2,0,10,0
2005/2/5,3:45,1.9,0,96,0,17.9,0,46.2,0,,2,17,0,10,0
2005/2/5,4:00,1.8,0,96,0,17.6,0,41.5,0,,2,16.8,0,10,0
2005/2/5,4:15,1.7,0,96,0,16.9,0,39.9,0,,2,16.6,0,10.2,0
2005/2/5,4:30,1.6,0,96,0,16.4,0,39.3,0,,2,16.3,0,10.4,0
2005/2/5,4:45,1.6,0,96,0,16,0,39.3,0,,2,16,0,10.4,0
2005/2/5,5:00,1.5,0,96,0,15.7,0,39.4,0,,2,15.8,0,10.4,0
2005/2/5,5:15,1.6,0,95,0,15.3,0,39.6,0,,2,15.5,0,10.5,0
2005/2/5,5:30,1.6,0,95,0,15.1,0,39.7,0,,2,15.3,0,10.5,0
2005/2/5,5:45,1.5,0,95,0,14.8,0,39.9,0,,2,15.1,0,10.5,0
2005/2/5,6:00,1.5,0,95,0,14.7,0,40.1,0,,2,14.9,0,10.4,0
2005/2/5,6:15,1.5,0,95,0,14.4,0,40.2,0,,2,14.7,0,10.4,0
2005/2/5,6:30,1.4,0,96,0,14.3,0,40.3,0,,2,14.5,0,10.4,0
2005/2/5,6:45,1.5,0,96,0,14.1,0,40.4,0,,2,14.4,0,10.3,0
2005/2/5,7:00,1.6,0,96,0,14,0,40.6,0,,2,14.2,0,10.3,0
2005/2/5,7:15,1.7,0,96,0,13.8,0,40.7,0,,2,14,0,10.3,0
2005/2/5,7:30,2,0,96,0,13.6,0,40.8,0,,2,13.9,0,10.2,0
2005/2/5,7:45,2.3,0,96,0,13.5,0,40.9,0,,2,13.7,0,10.2,0
2005/2/5,8:00,2.6,0,95,0,13.4,0,41,0,,2,13.6,0,10.1,0
2005/2/5,8:15,3.3,0,93,0,13.3,0,41.1,0,,2,13.5,0,10.1,0
2005/2/5,8:30,3.8,0,91,0,13.2,0,41.3,0,,2,13.3,0,10,0
2005/2/5,8:45,4.5,0,88,0,13.1,0,41.3,0,,2,13.2,0,10,0
2005/2/5,9:00,5.3,0,85,0,13.1,0,41.3,0,,2,13.1,0,10,0
2005/2/5,9:15,6,0,82,0,13.1,0,41.3,0,,2,13.1,0,9.9,0
2005/2/5,9:30,6.7,0,77,0,13.1,0,41.2,0,,2,13,0,9.9,0
2005/2/5,9:45,7.6,0,70,0,13.1,0,41.1,0,,2,13,0,9.9,0
2005/2/5,10:00,8.4,0,67,0,13.1,0,41.1,0,,2,13,0,9.9,0
2005/2/5,10:15,9,0,64,0,13.2,0,41.1,0,,2,13,0,9.9,0
2005/2/5,10:30,9.3,0,61,0,13.2,0,41.1,0,,2,13,0,10,0